| time (UTC) | temp F | wind direction | speed knots | gust knots | rain 1hr in | rain 24hr in | rain mn in | humidity % | barometer mb |
| 20260510092904 | 53 | 348 | 2.6 | 2.6 | 0.46 | 0.00 | 0.56 | 93 | 1010.0 |
| 20260510092323 | 53 | 215 | 6.1 | 7.0 | 0.43 | 0.00 | 0.49 | 92 | 1010.0 |
| 20260510091821 | 53 | 24 | 2.6 | 2.6 | 0.41 | 0.00 | 0.45 | 92 | 1010.0 |
| 20260510091320 | 53 | 270 | 2.6 | 2.6 | 0.49 | 0.00 | 0.40 | 92 | 1010.0 |
| 20260510090757 | 53 | 162 | 2.6 | 2.6 | 0.09 | 0.00 | 0.36 | 92 | 1010.0 |
| 20260510090243 | 53 | 24 | 7.0 | 7.0 | 0.78 | 0.00 | 0.34 | 91 | 1010.0 |
| 20260510085726 | 53 | 336 | 6.1 | 7.0 | 1.13 | 0.00 | 0.28 | 91 | 1010.0 |
| 20260510085150 | 54 | 169 | 2.6 | 2.6 | 0.02 | 0.00 | 0.22 | 90 | 1010.0 |
| 20260510084623 | 54 | 228 | 2.6 | 2.6 | 0.29 | 0.00 | 0.22 | 89 | 1010.0 |
| 20260510084109 | 54 | 317 | 7.0 | 7.0 | 1.15 | 0.00 | 0.15 | 88 | 1010.0 |
| 20260510083555 | 55 | 67 | 4.3 | 4.3 | 0.22 | 0.00 | 0.03 | 86 | 1010.0 |
| 20260510083031 | 55 | 196 | 3.5 | 3.5 | 0.00 | 0.00 | 0.00 | 84 | 1010.0 |
| 20260510082309 | 56 | 288 | 2.6 | 2.6 | 0.00 | 0.00 | 0.00 | 84 | 1010.0 |
| 20260510081742 | 56 | 277 | 2.6 | 2.6 | 0.00 | 0.00 | 0.00 | 84 | 1010.0 |
| 20260510081237 | 56 | 265 | 3.5 | 3.5 | 0.00 | 0.00 | 0.00 | 84 | 1010.0 |
| 20260510080745 | 56 | 138 | 3.5 | 3.5 | 0.00 | 0.00 | 0.00 | 84 | 1010.0 |
| 20260510080250 | 56 | 174 | 2.6 | 2.6 | 0.00 | 0.00 | 0.00 | 84 | 1010.0 |
| 20260510075739 | 56 | 36 | 3.5 | 3.5 | 0.00 | 0.00 | 0.00 | 84 | 1010.0 |
| 20260510075239 | 56 | 282 | 2.6 | 2.6 | 0.00 | 0.00 | 0.00 | 85 | 1010.0 |
| 20260510074735 | 56 | 257 | 3.5 | 3.5 | 0.00 | 0.00 | 0.00 | 85 | 1010.0 |
| 20260510074244 | 56 | 301 | 2.6 | 2.6 | 0.00 | 0.00 | 0.00 | 85 | 1010.0 |
| 20260510073741 | 56 | 318 | 2.6 | 2.6 | 0.00 | 0.00 | 0.00 | 86 | 1010.0 |
| 20260510072948 | 56 | 209 | 3.5 | 3.5 | 0.00 | 0.00 | 0.00 | 85 | 1010.0 |
| 20260510072447 | 56 | 95 | 4.3 | 4.3 | 0.00 | 0.00 | 0.00 | 85 | 1010.0 |
| 20260510071956 | 56 | 312 | 2.6 | 2.6 | 0.00 | 0.00 | 0.00 | 86 | 1010.0 |
| 20260510071459 | 56 | 198 | 3.5 | 3.5 | 0.00 | 0.00 | 0.00 | 86 | 1010.0 |
| 20260510071005 | 56 | 306 | 4.3 | 4.3 | 0.00 | 0.00 | 0.00 | 86 | 1010.0 |
| 20260510070506 | 56 | 229 | 2.6 | 2.6 | 0.00 | 0.00 | 0.00 | 86 | 1010.0 |
| 20260510065849 | 56 | 272 | 3.5 | 3.5 | 0.00 | 0.00 | 0.00 | 86 | 1010.0 |
| 20260510065349 | 56 | 294 | 2.6 | 2.6 | 0.00 | 0.00 | 0.00 | 86 | 1010.0 |
| 20260510064846 | 56 | 280 | 3.5 | 3.5 | 0.00 | 0.00 | 0.00 | 87 | 1010.0 |
| 20260510064144 | 55 | 24 | 2.6 | 2.6 | 0.00 | 0.00 | 0.00 | 88 | 1010.0 |
| 20260510063644 | 55 | 120 | 3.5 | 3.5 | 0.00 | 0.00 | 0.00 | 87 | 1010.0 |
| 20260510063129 | 56 | 233 | 2.6 | 2.6 | 0.00 | 0.00 | 0.00 | 87 | 1010.0 |
| 20260510062625 | 56 | 84 | 2.6 | 2.6 | 0.00 | 0.00 | 0.00 | 88 | 1010.0 |
| 20260510062135 | 55 | 324 | 2.6 | 2.6 | 0.00 | 0.00 | 0.00 | 88 | 1010.0 |
| 20260510061558 | 55 | 72 | 3.5 | 3.5 | 0.00 | 0.00 | 0.00 | 88 | 1010.0 |
| 20260510061101 | 55 | 330 | 3.5 | 3.5 | 0.00 | 0.00 | 0.00 | 89 | 1010.0 |
| 20260510060405 | 55 | 114 | 2.6 | 2.6 | 0.00 | 0.00 | 0.00 | 89 | 1010.0 |
| 20260510055850 | 55 | 132 | 3.5 | 3.5 | 0.00 | 0.00 | 0.00 | 90 | 1010.0 |
| 20260510055157 | 54 | 144 | 4.3 | 4.3 | 0.00 | 0.00 | 0.00 | 90 | 1010.0 |
| 20260510054023 | 54 | 283 | 2.6 | 2.6 | 0.00 | 0.00 | 0.00 | 91 | 1010.0 |
| 20260510053525 | 53 | 315 | 2.6 | 2.6 | 0.00 | 0.00 | 0.00 | 91 | 1010.0 |
| 20260510053029 | 53 | 258 | 2.6 | 2.6 | 0.00 | 0.00 | 0.00 | 92 | 1010.0 |
| 20260510052529 | 53 | 234 | 2.6 | 2.6 | 0.00 | 0.00 | 0.00 | 92 | 1010.0 |
| 20260510052010 | 53 | 126 | 2.6 | 2.6 | 0.00 | 0.00 | 0.00 | 92 | 1010.0 |
| 20260510051039 | 53 | 132 | 2.6 | 2.6 | 0.00 | 0.00 | 0.00 | 92 | 1010.0 |
| 20260510050124 | 53 | 251 | 4.3 | 4.3 | 0.00 | 0.00 | 0.00 | 92 | 1010.0 |
| 20260510045312 | 53 | 204 | 4.3 | 4.3 | 0.00 | 0.00 | 0.00 | 92 | 1009.0 |
| 20260510044541 | 53 | 307 | 2.6 | 2.6 | 0.00 | 0.00 | 0.00 | 92 | 1009.0 |
| 20260510043728 | 53 | 227 | 2.6 | 2.6 | 0.00 | 0.00 | 0.00 | 92 | 1009.0 |
| 20260510043105 | 53 | 298 | 3.5 | 3.5 | 0.00 | 0.00 | 0.00 | 92 | 1009.0 |
| 20260510042511 | 53 | 253 | 3.5 | 3.5 | 0.00 | 0.00 | 0.00 | 92 | 1009.0 |
| 20260510041944 | 53 | 324 | 2.6 | 2.6 | 0.00 | 0.00 | 0.00 | 91 | 1009.0 |
| 20260510041712 | 53 | 298 | 2.6 | 2.6 | 0.00 | 0.00 | 0.00 | 92 | 1009.0 |
| 20260510041211 | 53 | 241 | 2.6 | 2.6 | 0.00 | 0.00 | 0.00 | 92 | 1009.0 |
| 20260510040940 | 53 | 283 | 4.3 | 4.3 | 0.00 | 0.00 | 0.00 | 91 | 1009.0 |
| 20260510040518 | 53 | 330 | 2.6 | 2.6 | 0.00 | 0.00 | 0.00 | 92 | 1009.0 |
| 20260510040026 | 53 | 348 | 3.5 | 3.5 | 0.00 | 0.00 | 0.00 | 92 | 1009.0 |
| 20260510035531 | 53 | 292 | 6.1 | 7.0 | 0.00 | 0.00 | 0.00 | 91 | 1010.0 |
| 20260510034958 | 53 | 262 | 2.6 | 2.6 | 0.00 | 0.00 | 0.00 | 91 | 1010.0 |
| 20260510034429 | 53 | 283 | 2.6 | 2.6 | 0.00 | 0.00 | 0.00 | 91 | 1010.0 |
| 20260510033709 | 53 | 251 | 2.6 | 2.6 | 0.00 | 0.00 | 0.00 | 91 | 1010.0 |
| 20260510032852 | 53 | 258 | 2.6 | 2.6 | 0.00 | 0.00 | 0.00 | 91 | 1010.0 |
| 20260510032436 | 53 | 276 | 2.6 | 2.6 | 0.00 | 0.00 | 0.00 | 91 | 1010.0 |
| 20260510032137 | 53 | 195 | 2.6 | 2.6 | 0.00 | 0.00 | 0.00 | 91 | 1010.0 |
| 20260510030759 | 54 | 263 | 6.1 | 7.0 | 0.00 | 0.00 | 0.00 | 91 | 1010.0 |
| 20260510025558 | 54 | 198 | 2.6 | 2.6 | 0.00 | 0.00 | 0.00 | 90 | 1010.0 |
| 20260510023820 | 54 | 191 | 3.5 | 3.5 | 0.00 | 0.00 | 0.00 | 90 | 1010.0 |
| 20260510023236 | 54 | 279 | 4.3 | 4.3 | 0.00 | 0.00 | 0.00 | 90 | 1010.0 |
| 20260510022631 | 54 | 227 | 2.6 | 2.6 | 0.00 | 0.00 | 0.00 | 90 | 1010.0 |
| 20260510021818 | 54 | 246 | 3.5 | 3.5 | 0.00 | 0.00 | 0.00 | 90 | 1010.0 |
| 20260510020118 | 55 | 293 | 3.5 | 3.5 | 0.00 | 0.00 | 0.00 | 90 | 1010.0 |
| 20260510013648 | 55 | 324 | 2.6 | 2.6 | 0.00 | 0.00 | 0.00 | 88 | 1010.0 |
| 20260510013146 | 55 | 282 | 3.5 | 3.5 | 0.00 | 0.00 | 0.00 | 88 | 1011.0 |
| 20260510013004 | 55 | 252 | 2.6 | 2.6 | 0.00 | 0.00 | 0.00 | 88 | 1011.0 |
| 20260510012650 | 55 | 276 | 3.5 | 3.5 | 0.00 | 0.00 | 0.00 | 88 | 1011.0 |
| 20260510012151 | 56 | 95 | 6.1 | 6.1 | 0.00 | 0.00 | 0.00 | 87 | 1011.0 |
| 20260510011715 | 56 | 262 | 3.5 | 3.5 | 0.00 | 0.00 | 0.00 | 87 | 1011.0 |
| 20260510011659 | 56 | 338 | 3.5 | 3.5 | 0.00 | 0.00 | 0.00 | 87 | 1011.0 |
| 20260510011201 | 56 | 348 | 3.5 | 3.5 | 0.00 | 0.00 | 0.00 | 87 | 1011.0 |
| 20260510010655 | 56 | 310 | 2.6 | 2.6 | 0.00 | 0.00 | 0.00 | 86 | 1011.0 |
| 20260510010509 | 56 | 42 | 2.6 | 2.6 | 0.00 | 0.00 | 0.00 | 86 | 1011.0 |
| 20260510010153 | 56 | 306 | 2.6 | 2.6 | 0.00 | 0.00 | 0.00 | 86 | 1011.0 |
| 20260510005658 | 56 | 343 | 4.3 | 4.3 | 0.00 | 0.00 | 0.00 | 86 | 1011.0 |
| 20260510005200 | 56 | 263 | 2.6 | 2.6 | 0.00 | 0.00 | 0.00 | 86 | 1011.0 |
| 20260510004657 | 56 | 281 | 2.6 | 2.6 | 0.00 | 0.00 | 0.00 | 86 | 1011.0 |
| 20260510004057 | 56 | 354 | 2.6 | 2.6 | 0.00 | 0.00 | 0.00 | 86 | 1011.0 |
| 20260510003509 | 56 | 246 | 2.6 | 2.6 | 0.00 | 0.00 | 0.00 | 86 | 1011.0 |
| 20260510002909 | 56 | 221 | 2.6 | 2.6 | 0.00 | 0.00 | 0.00 | 87 | 1011.0 |
| 20260510002409 | 56 | 258 | 2.6 | 2.6 | 0.00 | 0.00 | 0.00 | 87 | 1012.0 |
| 20260510002232 | 56 | 253 | 3.5 | 3.5 | 0.00 | 0.00 | 0.00 | 87 | 1012.0 |
| 20260510001827 | 56 | 330 | 2.6 | 2.6 | 0.00 | 0.00 | 0.00 | 87 | 1012.0 |
| 20260510001330 | 56 | 292 | 3.5 | 3.5 | 0.00 | 0.00 | 0.00 | 87 | 1012.0 |
| 20260510000812 | 56 | 251 | 3.5 | 3.5 | 0.00 | 0.00 | 0.00 | 87 | 1012.0 |
| 20260510000253 | 56 | 228 | 4.3 | 4.3 | 0.00 | 0.00 | 0.00 | 87 | 1012.0 |
| 20260510000218 | 56 | 54 | 2.6 | 2.6 | 0.00 | 0.00 | 0.00 | 87 | 1012.0 |
| 20260509235719 | 56 | 221 | 3.5 | 3.5 | 0.00 | 0.00 | 0.00 | 87 | 1012.0 |
| 20260509235219 | 56 | 24 | 3.5 | 3.5 | 0.00 | 0.00 | 0.00 | 87 | 1012.0 |
| 20260509234715 | 56 | 132 | 4.3 | 4.3 | 0.00 | 0.00 | 0.00 | 87 | 1012.0 |
| 20260509234701 | 56 | 229 | 8.7 | 8.7 | 0.00 | 0.00 | 0.00 | 87 | 1012.0 |
| 20260509234159 | 56 | 306 | 5.2 | 6.1 | 0.00 | 0.00 | 0.00 | 88 | 1012.0 |
| 20260509233628 | 56 | 263 | 2.6 | 2.6 | 0.00 | 0.00 | 0.00 | 87 | 1012.0 |
| 20260509233134 | 56 | 298 | 5.2 | 5.2 | 0.00 | 0.00 | 0.00 | 87 | 1012.0 |
| 20260509232559 | 56 | 203 | 2.6 | 2.6 | 0.00 | 0.00 | 0.00 | 87 | 1012.0 |
| 20260509232015 | 56 | 307 | 3.5 | 3.5 | 0.00 | 0.00 | 0.00 | 87 | 1012.0 |
| 20260509231444 | 56 | 234 | 3.5 | 3.5 | 0.00 | 0.00 | 0.00 | 86 | 1012.0 |
| 20260509230952 | 57 | 296 | 6.1 | 6.1 | 0.00 | 0.00 | 0.00 | 86 | 1012.0 |
| 20260509230444 | 57 | 330 | 2.6 | 2.6 | 0.00 | 0.00 | 0.00 | 86 | 1012.0 |
| 20260509225946 | 57 | 332 | 2.6 | 2.6 | 0.00 | 0.00 | 0.00 | 85 | 1012.0 |
| 20260509225452 | 57 | 276 | 3.5 | 3.5 | 0.00 | 0.00 | 0.00 | 85 | 1012.0 |
| 20260509224956 | 57 | 201 | 2.6 | 2.6 | 0.00 | 0.00 | 0.00 | 85 | 1012.0 |
| 20260509224655 | 57 | 156 | 3.5 | 3.5 | 0.00 | 0.00 | 0.00 | 85 | 1012.0 |
| 20260509224503 | 57 | 294 | 2.6 | 2.6 | 0.00 | 0.00 | 0.00 | 86 | 1012.0 |
| 20260509223757 | 57 | 321 | 2.6 | 2.6 | 0.00 | 0.00 | 0.00 | 86 | 1012.0 |
| 20260509223241 | 56 | 282 | 3.5 | 3.5 | 0.00 | 0.00 | 0.00 | 86 | 1012.0 |
| 20260509222748 | 57 | 250 | 3.5 | 3.5 | 0.00 | 0.00 | 0.00 | 86 | 1012.0 |
| 20260509222517 | 57 | 332 | 3.5 | 3.5 | 0.00 | 0.00 | 0.00 | 86 | 1012.0 |
| 20260509222218 | 57 | 336 | 3.5 | 3.5 | 0.00 | 0.00 | 0.00 | 86 | 1012.0 |
| 20260509221714 | 56 | 164 | 3.5 | 3.5 | 0.00 | 0.00 | 0.00 | 86 | 1012.0 |
| 20260509221211 | 56 | 48 | 6.1 | 6.1 | 0.00 | 0.00 | 0.00 | 86 | 1012.0 |
| 20260509221143 | 56 | 217 | 4.3 | 4.3 | 0.00 | 0.00 | 0.00 | 86 | 1012.0 |
| 20260509220711 | 56 | 262 | 2.6 | 2.6 | 0.00 | 0.00 | 0.00 | 86 | 1012.0 |
| 20260509220205 | 56 | 343 | 3.5 | 3.5 | 0.00 | 0.00 | 0.00 | 87 | 1012.0 |
| 20260509215514 | 56 | 162 | 6.1 | 6.1 | 0.00 | 0.00 | 0.18 | 87 | 1012.0 |
| 20260509215021 | 56 | 205 | 2.6 | 2.6 | 0.00 | 0.00 | 0.18 | 87 | 1012.0 |
| 20260509214518 | 56 | 16 | 3.5 | 3.5 | 0.00 | 0.00 | 0.18 | 87 | 1012.0 |
| 20260509214421 | 56 | 42 | 2.6 | 2.6 | 0.00 | 0.00 | 0.18 | 87 | 1012.0 |
| 20260509214028 | 56 | 84 | 3.5 | 3.5 | 0.00 | 0.00 | 0.18 | 87 | 1012.0 |
| 20260509213523 | 56 | 293 | 7.0 | 7.8 | 0.00 | 0.00 | 0.18 | 87 | 1012.0 |
| 20260509213021 | 56 | 312 | 2.6 | 2.6 | 0.00 | 0.00 | 0.18 | 87 | 1013.0 |
| 20260509212842 | 56 | 230 | 5.2 | 5.2 | 0.00 | 0.00 | 0.18 | 87 | 1013.0 |
| 20260509212531 | 56 | 252 | 2.6 | 2.6 | 0.00 | 0.00 | 0.18 | 87 | 1013.0 |
| 20260509212028 | 57 | 216 | 3.5 | 3.5 | 0.00 | 0.00 | 0.18 | 88 | 1013.0 |
| 20260509211519 | 57 | 252 | 5.2 | 5.2 | 0.00 | 0.00 | 0.18 | 88 | 1013.0 |
| 20260509211006 | 57 | 330 | 2.6 | 2.6 | 0.00 | 0.00 | 0.18 | 88 | 1013.0 |
| 20260509210503 | 57 | 286 | 3.5 | 3.5 | 0.00 | 0.00 | 0.18 | 88 | 1013.0 |
| 20260509205942 | 57 | 350 | 3.5 | 3.5 | 0.00 | 0.00 | 0.18 | 87 | 1012.0 |
| 20260509205451 | 57 | 332 | 3.5 | 3.5 | 0.00 | 0.00 | 0.18 | 87 | 1012.0 |
| 20260509204929 | 57 | 210 | 2.6 | 2.6 | 0.00 | 0.00 | 0.18 | 88 | 1012.0 |
| 20260509204418 | 57 | 312 | 3.5 | 3.5 | 0.00 | 0.00 | 0.18 | 88 | 1012.0 |
| 20260509204117 | 57 | 95 | 2.6 | 2.6 | 0.00 | 0.00 | 0.18 | 88 | 1012.0 |
| 20260509203924 | 57 | 106 | 2.6 | 2.6 | 0.00 | 0.00 | 0.18 | 88 | 1012.0 |
| 20260509203432 | 57 | 298 | 6.1 | 7.0 | 0.00 | 0.00 | 0.18 | 88 | 1012.0 |
| 20260509203337 | 57 | 288 | 4.3 | 4.3 | 0.00 | 0.00 | 0.18 | 88 | 1012.0 |
| 20260509202215 | 57 | 305 | 2.6 | 2.6 | 0.00 | 0.00 | 0.18 | 88 | 1012.0 |
| 20260509201720 | 57 | 300 | 2.6 | 2.6 | 0.00 | 0.00 | 0.18 | 87 | 1012.0 |
| 20260509201228 | 57 | 130 | 3.5 | 3.5 | 0.00 | 0.00 | 0.18 | 87 | 1012.0 |
| 20260509200646 | 57 | 180 | 4.3 | 4.3 | 0.00 | 0.00 | 0.18 | 86 | 1012.0 |
| 20260509200041 | 57 | 191 | 2.6 | 2.6 | 0.00 | 0.00 | 0.18 | 85 | 1012.0 |
| 20260509195351 | 58 | 250 | 5.2 | 6.1 | 0.00 | 0.00 | 0.18 | 84 | 1012.0 |
| 20260509194819 | 57 | 48 | 2.6 | 2.6 | 0.00 | 0.00 | 0.18 | 84 | 1012.0 |
| 20260509194327 | 57 | 84 | 2.6 | 2.6 | 0.00 | 0.00 | 0.18 | 84 | 1012.0 |
| 20260509193832 | 57 | 168 | 3.5 | 3.5 | 0.00 | 0.00 | 0.18 | 85 | 1012.0 |
| 20260509193215 | 57 | 205 | 2.6 | 2.6 | 0.00 | 0.00 | 0.18 | 85 | 1012.0 |
| 20260509192336 | 57 | 342 | 3.5 | 3.5 | 0.00 | 0.00 | 0.18 | 85 | 1011.0 |
| 20260509191517 | 58 | 72 | 3.5 | 3.5 | 0.00 | 0.00 | 0.18 | 85 | 1011.0 |
| 20260509190909 | 58 | 150 | 3.5 | 3.5 | 0.00 | 0.00 | 0.18 | 85 | 1011.0 |
| 20260509190017 | 58 | 78 | 3.5 | 3.5 | 0.00 | 0.00 | 0.18 | 85 | 1011.0 |
| 20260509185523 | 58 | 226 | 2.6 | 2.6 | 0.00 | 0.00 | 0.18 | 84 | 1011.0 |
| 20260509185004 | 58 | 114 | 2.6 | 2.6 | 0.00 | 0.00 | 0.18 | 84 | 1011.0 |
| 20260509184512 | 58 | 153 | 2.6 | 2.6 | 0.00 | 0.00 | 0.18 | 85 | 1011.0 |
| 20260509183952 | 58 | 150 | 6.1 | 6.1 | 0.00 | 0.00 | 0.18 | 87 | 1011.0 |
| 20260509183420 | 58 | 84 | 4.3 | 4.3 | 0.00 | 0.00 | 0.18 | 87 | 1011.0 |
| 20260509182917 | 59 | 114 | 2.6 | 2.6 | 0.00 | 0.00 | 0.18 | 86 | 1011.0 |
| 20260509182420 | 60 | 186 | 2.6 | 2.6 | 0.04 | 0.00 | 0.18 | 85 | 1011.0 |
| 20260509181856 | 60 | 227 | 3.5 | 3.5 | 0.03 | 0.00 | 0.17 | 83 | 1011.0 |
| 20260509181355 | 62 | 210 | 3.5 | 3.5 | 0.00 | 0.00 | 0.16 | 79 | 1011.0 |
| 20260509180853 | 63 | 168 | 2.6 | 2.6 | 0.00 | 0.00 | 0.15 | 75 | 1011.0 |
| 20260509180355 | 64 | 82 | 7.0 | 7.8 | 0.00 | 0.00 | 0.15 | 74 | 1011.0 |
| 20260509175845 | 64 | 294 | 2.6 | 2.6 | 0.00 | 0.00 | 0.15 | 72 | 1011.0 |
| 20260509175326 | 65 | 295 | 5.2 | 5.2 | 0.00 | 0.00 | 0.15 | 72 | 1011.0 |
| 20260509174702 | 65 | 6 | 2.6 | 2.6 | 0.00 | 0.00 | 0.15 | 70 | 1011.0 |
| 20260509174050 | 65 | 330 | 3.5 | 3.5 | 0.00 | 0.00 | 0.15 | 68 | 1011.0 |
| 20260509173600 | 66 | 24 | 5.2 | 5.2 | 0.00 | 0.00 | 0.15 | 66 | 1011.0 |
| 20260509173029 | 66 | 170 | 2.6 | 2.6 | 0.00 | 0.00 | 0.15 | 66 | 1011.0 |
| 20260509172533 | 66 | 60 | 2.6 | 2.6 | 0.00 | 0.00 | 0.15 | 66 | 1011.0 |
| 20260509172040 | 67 | 289 | 6.1 | 6.1 | 0.00 | 0.00 | 0.15 | 65 | 1011.0 |
| 20260509171533 | 67 | 138 | 3.5 | 3.5 | 0.00 | 0.00 | 0.15 | 64 | 1011.0 |
| 20260509171037 | 67 | 150 | 6.1 | 7.0 | 0.00 | 0.00 | 0.15 | 64 | 1011.0 |
| 20260509170536 | 68 | 89 | 3.5 | 3.5 | 0.00 | 0.00 | 0.15 | 64 | 1011.0 |
| 20260509165955 | 68 | 186 | 2.6 | 2.6 | 0.00 | 0.00 | 0.15 | 63 | 1011.0 |
| 20260509165455 | 69 | 313 | 3.5 | 3.5 | 0.00 | 0.00 | 0.15 | 62 | 1011.0 |
| 20260509165004 | 70 | 238 | 3.5 | 3.5 | 0.00 | 0.00 | 0.15 | 60 | 1011.0 |
| 20260509164513 | 71 | 292 | 2.6 | 2.6 | 0.00 | 0.00 | 0.15 | 59 | 1011.0 |
| 20260509164021 | 71 | 270 | 2.6 | 2.6 | 0.00 | 0.00 | 0.15 | 57 | 1011.0 |
| 20260509163433 | 71 | 270 | 3.5 | 3.5 | 0.00 | 0.00 | 0.15 | 56 | 1011.0 |
| 20260509162206 | 71 | 232 | 2.6 | 2.6 | 0.00 | 0.00 | 0.15 | 55 | 1011.0 |
| 20260509161715 | 72 | 282 | 3.5 | 3.5 | 0.00 | 0.00 | 0.15 | 54 | 1011.0 |
| 20260509161217 | 72 | 252 | 3.5 | 3.5 | 0.00 | 0.00 | 0.15 | 53 | 1011.0 |
| 20260509160722 | 73 | 257 | 2.6 | 2.6 | 0.00 | 0.00 | 0.15 | 53 | 1011.0 |
| 20260509160230 | 73 | 150 | 2.6 | 2.6 | 0.00 | 0.00 | 0.15 | 52 | 1011.0 |
| 20260509155629 | 72 | 286 | 3.5 | 3.5 | 0.00 | 0.00 | 0.15 | 54 | 1011.0 |
| 20260509155133 | 72 | 348 | 4.3 | 4.3 | 0.00 | 0.00 | 0.15 | 55 | 1011.0 |
| 20260509154542 | 72 | 349 | 2.6 | 2.6 | 0.00 | 0.00 | 0.15 | 55 | 1011.0 |
| 20260509153656 | 73 | 208 | 2.6 | 2.6 | 0.00 | 0.00 | 0.15 | 52 | 1011.0 |
| 20260509153100 | 71 | 318 | 3.5 | 3.5 | 0.00 | 0.00 | 0.15 | 54 | 1011.0 |
| 20260509152445 | 71 | 296 | 3.5 | 3.5 | 0.00 | 0.00 | 0.15 | 55 | 1011.0 |
| 20260509151901 | 71 | 265 | 2.6 | 2.6 | 0.00 | 0.00 | 0.15 | 54 | 1011.0 |
| 20260509151401 | 72 | 4 | 3.5 | 3.5 | 0.00 | 0.00 | 0.15 | 53 | 1011.0 |
| 20260509150820 | 73 | 22 | 6.1 | 7.0 | 0.00 | 0.00 | 0.15 | 51 | 1011.0 |
| 20260509150304 | 74 | 59 | 3.5 | 3.5 | 0.00 | 0.00 | 0.15 | 51 | 1011.0 |
| 20260509145802 | 73 | 288 | 3.5 | 3.5 | 0.00 | 0.00 | 0.15 | 50 | 1011.0 |
| 20260509145312 | 74 | 294 | 2.6 | 2.6 | 0.00 | 0.00 | 0.15 | 50 | 1011.0 |
| 20260509144819 | 75 | 335 | 4.3 | 4.3 | 0.00 | 0.00 | 0.15 | 51 | 1011.0 |
| 20260509144317 | 74 | 41 | 2.6 | 2.6 | 0.00 | 0.00 | 0.15 | 52 | 1011.0 |
| 20260509143814 | 74 | 48 | 6.1 | 6.1 | 0.00 | 0.00 | 0.15 | 50 | 1011.0 |
| 20260509143314 | 74 | 96 | 3.5 | 3.5 | 0.00 | 0.00 | 0.15 | 50 | 1011.0 |
| 20260509142811 | 73 | 240 | 3.5 | 3.5 | 0.00 | 0.00 | 0.15 | 51 | 1011.0 |
| 20260509142311 | 73 | 25 | 6.1 | 6.1 | 0.00 | 0.00 | 0.15 | 49 | 1011.0 |
| 20260509141817 | 74 | 354 | 5.2 | 6.1 | 0.00 | 0.00 | 0.15 | 49 | 1011.0 |
| 20260509141328 | 74 | 326 | 7.8 | 7.8 | 0.00 | 0.00 | 0.15 | 50 | 1011.0 |
| 20260509140830 | 73 | 282 | 2.6 | 2.6 | 0.00 | 0.00 | 0.15 | 51 | 1011.0 |
| 20260509140329 | 73 | 216 | 3.5 | 3.5 | 0.00 | 0.00 | 0.15 | 52 | 1011.0 |
| 20260509135833 | 72 | 226 | 3.5 | 3.5 | 0.00 | 0.00 | 0.15 | 53 | 1011.0 |
| 20260509135334 | 71 | 240 | 4.3 | 4.3 | 0.00 | 0.00 | 0.15 | 52 | 1012.0 |
| 20260509134837 | 71 | 292 | 3.5 | 3.5 | 0.00 | 0.00 | 0.15 | 54 | 1012.0 |
| 20260509134334 | 72 | 102 | 4.3 | 4.3 | 0.00 | 0.00 | 0.15 | 53 | 1012.0 |
| 20260509133843 | 73 | 340 | 4.3 | 4.3 | 0.00 | 0.00 | 0.15 | 52 | 1012.0 |
| 20260509133350 | 73 | 306 | 7.0 | 7.0 | 0.00 | 0.00 | 0.15 | 51 | 1012.0 |
| 20260509132900 | 72 | 59 | 2.6 | 2.6 | 0.00 | 0.00 | 0.15 | 55 | 1012.0 |
| 20260509132359 | 71 | 294 | 5.2 | 6.1 | 0.00 | 0.00 | 0.15 | 56 | 1012.0 |
| 20260509131909 | 71 | 358 | 9.6 | 10.4 | 0.00 | 0.00 | 0.15 | 57 | 1012.0 |
| 20260509131415 | 71 | 138 | 7.0 | 7.0 | 0.00 | 0.00 | 0.15 | 55 | 1012.0 |
| 20260509130924 | 71 | 12 | 5.2 | 6.1 | 0.00 | 0.00 | 0.15 | 55 | 1012.0 |
| 20260509130428 | 71 | 354 | 6.1 | 6.1 | 0.00 | 0.00 | 0.15 | 55 | 1012.0 |
| 20260509125923 | 71 | 166 | 7.8 | 8.7 | 0.00 | 0.00 | 0.15 | 54 | 1012.0 |
| 20260509125420 | 71 | 61 | 3.5 | 3.5 | 0.00 | 0.00 | 0.15 | 53 | 1012.0 |
| 20260509124927 | 70 | 283 | 5.2 | 5.2 | 0.00 | 0.00 | 0.15 | 55 | 1012.0 |
| 20260509124425 | 70 | 348 | 5.2 | 6.1 | 0.00 | 0.00 | 0.15 | 55 | 1012.0 |
| 20260509123934 | 70 | 310 | 5.2 | 6.1 | 0.00 | 0.00 | 0.15 | 55 | 1012.0 |
| 20260509123434 | 69 | 310 | 7.0 | 7.0 | 0.00 | 0.00 | 0.15 | 56 | 1012.0 |
| 20260509122933 | 69 | 154 | 3.5 | 3.5 | 0.00 | 0.00 | 0.15 | 59 | 1012.0 |
| 20260509122432 | 70 | 265 | 5.2 | 5.2 | 0.00 | 0.00 | 0.15 | 58 | 1012.0 |
| 20260509122215 | 70 | 318 | 6.1 | 7.0 | 0.00 | 0.00 | 0.15 | 59 | 1012.0 |
| 20260509121725 | 68 | 66 | 3.5 | 3.5 | 0.00 | 0.00 | 0.15 | 59 | 1012.0 |
| 20260509121225 | 67 | 300 | 3.5 | 3.5 | 0.00 | 0.00 | 0.15 | 61 | 1012.0 |
| 20260509120733 | 66 | 348 | 4.3 | 4.3 | 0.00 | 0.00 | 0.15 | 61 | 1012.0 |
| 20260509120238 | 67 | 239 | 7.0 | 7.8 | 0.00 | 0.00 | 0.15 | 60 | 1012.0 |
| 20260509115923 | 67 | 227 | 6.1 | 7.0 | 0.00 | 0.00 | 0.15 | 61 | 1012.0 |
| 20260509115656 | 66 | 329 | 2.6 | 2.6 | 0.00 | 0.00 | 0.15 | 63 | 1012.0 |
| 20260509115203 | 67 | 305 | 3.5 | 3.5 | 0.00 | 0.00 | 0.15 | 62 | 1012.0 |
| 20260509114700 | 67 | 354 | 2.6 | 2.6 | 0.00 | 0.00 | 0.15 | 62 | 1012.0 |
| 20260509114107 | 66 | 326 | 6.1 | 6.1 | 0.00 | 0.00 | 0.15 | 63 | 1012.0 |
| 20260509113614 | 66 | 328 | 7.0 | 7.8 | 0.00 | 0.00 | 0.15 | 61 | 1012.0 |
| 20260509113123 | 66 | 354 | 3.5 | 3.5 | 0.00 | 0.00 | 0.15 | 63 | 1012.0 |
| 20260509112905 | 65 | 32 | 2.6 | 2.6 | 0.00 | 0.00 | 0.15 | 65 | 1012.0 |
| 20260509112556 | 65 | 288 | 4.3 | 4.3 | 0.00 | 0.00 | 0.15 | 64 | 1012.0 |
| 20260509112100 | 66 | 276 | 7.8 | 7.8 | 0.00 | 0.00 | 0.15 | 64 | 1012.0 |
| 20260509111605 | 66 | 276 | 7.8 | 8.7 | 0.00 | 0.00 | 0.15 | 64 | 1013.0 |
| 20260509111110 | 65 | 262 | 7.8 | 8.7 | 0.00 | 0.00 | 0.15 | 65 | 1013.0 |
| 20260509110602 | 64 | 239 | 4.3 | 4.3 | 0.00 | 0.00 | 0.15 | 67 | 1013.0 |
| 20260509110052 | 64 | 308 | 6.1 | 7.0 | 0.00 | 0.00 | 0.15 | 66 | 1013.0 |
| 20260509105600 | 64 | 301 | 2.6 | 2.6 | 0.00 | 0.00 | 0.15 | 67 | 1013.0 |
| 20260509105107 | 63 | 296 | 3.5 | 3.5 | 0.00 | 0.00 | 0.15 | 68 | 1013.0 |
| 20260509104615 | 63 | 329 | 5.2 | 5.2 | 0.00 | 0.00 | 0.15 | 69 | 1013.0 |
| 20260509104208 | 63 | 12 | 3.5 | 3.5 | 0.00 | 0.00 | 0.15 | 68 | 1013.0 |
| 20260509104114 | 63 | 312 | 5.2 | 5.2 | 0.00 | 0.00 | 0.15 | 68 | 1013.0 |
| 20260509103618 | 62 | 312 | 2.6 | 2.6 | 0.00 | 0.00 | 0.15 | 70 | 1013.0 |
| 20260509103117 | 62 | 317 | 4.3 | 4.3 | 0.00 | 0.00 | 0.15 | 70 | 1013.0 |
| 20260509102622 | 63 | 195 | 3.5 | 3.5 | 0.00 | 0.00 | 0.15 | 71 | 1013.0 |
| 20260509102131 | 63 | 234 | 7.8 | 7.8 | 0.00 | 0.00 | 0.15 | 69 | 1013.0 |
| 20260509101637 | 62 | 9 | 4.3 | 4.3 | 0.00 | 0.00 | 0.15 | 70 | 1013.0 |
| 20260509101137 | 61 | 173 | 10.4 | 11.3 | 0.00 | 0.00 | 0.15 | 72 | 1013.0 |
| 20260509100620 | 60 | 337 | 2.6 | 2.6 | 0.00 | 0.00 | 0.15 | 72 | 1013.0 |
| 20260509100049 | 60 | 306 | 5.2 | 5.2 | 0.00 | 0.00 | 0.15 | 73 | 1013.0 |
| 20260509095553 | 59 | 313 | 3.5 | 3.5 | 0.00 | 0.00 | 0.15 | 73 | 1013.0 |
| 20260509095053 | 59 | 299 | 3.5 | 3.5 | 0.00 | 0.00 | 0.15 | 74 | 1013.0 |
| 20260509094558 | 58 | 301 | 6.1 | 6.1 | 0.00 | 0.00 | 0.15 | 76 | 1013.0 |
| 20260509094503 | 58 | 95 | 6.1 | 7.0 | 0.00 | 0.00 | 0.15 | 76 | 1013.0 |
| 20260509094108 | 58 | 126 | 4.3 | 4.3 | 0.00 | 0.00 | 0.15 | 77 | 1013.0 |
| 20260509093929 | 58 | 278 | 4.3 | 4.3 | 0.00 | 0.00 | 0.15 | 78 | 1013.0 |